Location: Nitra
(0.0000°N, 18.0833°E)
Time: 23:57:30
(UTC+02:00)

BEESAT 2 - Visible Passes

Search period start: 04 June 2023 00:00
Search period end: 14 June 2023 00:00
Orbit: 430 x 466 km, 64.9° (Epoch: 04 June)

Date Brightness Start Highest point End Pass type
(mag) Time Alt. Az. Time Alt. Az. Time Alt. Az.
08 Jun ? 21:08:14 10° NW 21:08:42 13° NW 21:08:42 13° NW visible
09 Jun ? 20:30:32 10° NNW 20:33:04 44° NW 20:33:04 44° NW visible
10 Jun ? 19:53:14 10° N 19:56:36 45° ENE 19:57:26 37° ESE visible
11 Jun ? 19:16:25 10° NNE 19:19:08 21° ENE 19:21:49 10° ESE visible
12 Jun ? 20:14:56 10° WNW 20:17:28 19° WSW 20:19:47 11° SSW visible
13 Jun ? 19:36:35 10° NW 19:39:53 40° WSW 19:43:11 10° S visible
